Location: Newark
(36.5100°N, 98.4486°W)
Time: 11:15:25
(UTC+00:00)

Envisat - Visible Passes

Search period start: 20 November 2019 00:00
Search period end: 30 November 2019 00:00
Orbit: 764 x 766 km, 98.1° (Epoch: 20 November)

Date Brightness Start Highest point End Pass type
(mag) Time Alt. Az. Time Alt. Az. Time Alt. Az.
20 Nov 5.3 01:36:28 10° SSW 01:40:30 24° W 01:44:33 10° NW visible
20 Nov 6.1 12:09:39 10° ENE 12:12:21 14° E 12:15:03 10° SE visible
21 Nov 3.7 00:58:37 10° S 01:03:34 56° W 01:08:34 10° NNW visible
22 Nov 3.0 00:21:50 10° SSE 00:26:50 63° ENE 00:31:51 10° N visible
22 Nov 6.1 02:04:01 10° WSW 02:06:13 13° W 02:08:27 10° WNW visible
22 Nov 5.5 12:33:49 10° NE 12:38:04 26° E 12:42:16 10° SSE visible
22 Nov 3.9 23:46:02 10° SE 23:50:17 27° ENE 23:54:31 10° NNE visible
23 Nov 4.9 01:24:44 10° SSW 01:29:09 30° W 01:33:37 10° NW visible
23 Nov 6.5 11:59:48 10° ENE 12:00:57 11° E 12:02:08 10° ESE visible
24 Nov 3.2 00:47:14 10° S 00:52:17 72° WSW 00:57:22 10° NNW visible
25 Nov 3.2 00:10:44 10° SE 00:15:36 49° ENE 00:20:29 10° N visible
25 Nov 5.8 01:51:38 10° SW 01:54:51 17° W 01:58:04 10° NW visible
25 Nov 5.9 12:22:57 10° NE 12:26:43 21° E 12:30:26 10° SE visible
26 Nov 4.4 01:13:07 10° SSW 01:17:50 39° W 01:22:35 10° NNW visible
27 Nov 2.9 00:35:57 10° SSE 00:41:01 88° ENE 00:46:08 10° NNW visible
27 Nov 4.8 12:47:39 10° NNE 12:52:21 37° E 12:57:01 10° SSE visible
27 Nov 3.5 23:59:44 10° SE 00:04:23 38° ENE 00:09:04 10° N visible
28 Nov 5.4 01:39:38 10° SW 01:43:29 22° W 01:47:20 10° NW visible
28 Nov 6.0 12:12:17 10° NE 12:15:20 16° E 12:18:23 10° SE visible
29 Nov 3.9 01:01:37 10° S 01:06:31 50° W 01:11:28 10° NNW visible
